星链-34178 (STARLINK-34178)

导读

STARLINK-34178是美国SpaceX公司于2025年5月23日发射的星链(Starlink)低轨通信卫星,属于第二代星链星座组网卫星。它采用平板设计、霍尔推进与自主避撞技术,单颗容量提升至初代卫星四倍,为全球,特别是欠发达偏远地区,提供低延迟高速宽带互联网服务,助力星链实现全球覆盖,推动卫星通信技术迭代。

基本信息
目录编号:
64096
目录名称:
STARLINK-34178
国际标识:
2025-110A
轨道中心:
EARTH
卫星名称:
星链-34178
卫星全名:
星链-34178 (STARLINK-34178)
卫星状态:
在轨 (已飞行470 天)
发射日期:
2025-05-23 UTC
国别 :
美国 (US)
星等 :
--
轨道信息
数据来源 国际轨道数据
星历时间: 2026-09-05T09:32:20+0800
7小时前
查看轨道信息
半长轴: 6848.854km
偏心率: 0.0000681
轨道倾角: 53.160°
近地点辐角 60.140°
升交点赤经 273.012°
平近点角 299.967°
近地点: 470.25km
远地点: 471.184km
周期: 94.013分钟
每日圈数: 15.317079
详细信息
固有亮度:
5
最大亮度:
2.5
卫星平台:
Starlink V1.0
覆盖范围:
全球
运营商:
太空探索技术公司
运营商所在国:
美国
制造商(研发单位):
太空探索技术公司
制造商所在国:
美国
使用方式:
暂无
卫星简介
Starlink 计划是 SpaceX 推出的全球卫星互联网项目,通过发射低轨道卫星,为全球尤其是偏远地区提供高速、低延迟的互联网服务。自 2019 年起,Starlink 已部署数千颗卫星,旨在缩小全球数字鸿沟,推动互联网普及。该项目还为军事、航空等行业提供通信支持,带来广泛经济效益。
2D轨道图
3D轨道图
轨道高度分析图
轨道倾角分析图
轨道综合分析图
查看轨道综合分析图
交会数据列表
事件ID 空间交会对象 最接近时刻(TCA) 交会距离 交会风险概率(CRP) 交会风险指数(CRI) 操作
CDM_260906-132406-409606-630622
OBJECT P (66306)
2026-09-06T
13:24:08+0000
2.054 km
极远距离
2.135074E-6 低风险 0.42
CDM_260905-211006-409606-968821
2026-09-05T
21:10:08+0000
2.910 km
极远距离
1.386922E-6 低风险 0.38
CDM_260905-211104-780406-409622
2026-09-05T
21:11:30+0000
2.848 km
极远距离
1.267145E-6 低风险 0.37
CDM_260906-181906-409606-955421
2026-09-06T
18:19:48+0000
2.610 km
极远距离
9.614162E-7 极低风险 0.35
CDM_260907-113006-409606-922021
2026-09-07T
11:30:36+0000
2.968 km
极远距离
7.999825E-7 极低风险 0.33